{"data":{"norad_id":66836,"intl_designator":"2025-280R","name":"STARLINK-35838","alt_names":[],"object_type":"PAYLOAD","status":"ACTIVE","operator":null,"country":"US","launch_date":"2025-12-02","launch_site_code":"AFWTR","launch_vehicle":null,"mission":null,"orbit_class":"UNKNOWN","rcs_meters":null,"size_class":null,"mass_kg":null,"dimensions":null,"purposes":["comms"],"wikipedia_slug":null,"has_3d_model":false,"image_url":null,"decayed_at":null,"tle_current":{"epoch":"2026-05-25T05:36:45.175680Z","epoch_age_seconds":54955,"freshness":"FRESH","line1":"1 66836U 25280R   26145.23385620  .00002433  00000+0  21161-3 0  9998","line2":"2 66836  70.0008 141.3750 0004068 264.7865  95.2830 14.98335755 27548","mean_motion":14.98335755,"eccentricity":0.0004068,"inclination_deg":70.0008,"raan_deg":141.375,"arg_perigee_deg":264.7865,"mean_anomaly_deg":95.283,"bstar":0.00021161,"rev_number":2754,"period_min":96.106629985614,"perigee_km":569.21076291032,"apogee_km":574.86542536691,"semimajor_km":6950.1750941386,"source":"CELESTRAK","updated_at":"2026-05-25T13:38:21.336899Z"}}}